Location: Unspecified
(0.0000°N, 0.0000°E)
Time: 21:26:27
(UTC+00:00)

ISS - Visible Passes

Search period start: 27 August 2015 00:00
Search period end: 06 September 2015 00:00
Orbit: 399 x 402 km, 51.6° (Epoch: 27 August)

Date Brightness Start Highest point End Pass type
(mag) Time Alt. Az. Time Alt. Az. Time Alt. Az.
27 Aug -2.3 19:32:27 10° NW 19:35:05 46° W 19:35:05 46° W visible
28 Aug -2.9 18:39:04 10° NNW 18:42:09 44° NE 18:44:43 14° SE visible
29 Aug -0.5 19:22:56 10° W 19:24:55 15° SW 19:26:47 10° SSW visible
30 Aug -2.1 18:28:16 10° NW 18:31:21 41° SW 18:34:25 10° SSE visible
01 Sep -1.6 05:08:09 10° S 05:11:05 32° SE 05:14:02 10° ENE visible
02 Sep -0.3 04:16:35 11° SE 04:17:26 12° SE 04:18:49 10° ESE visible
03 Sep -3.3 04:58:49 31° WSW 05:00:07 59° NW 05:03:17 10° NNE visible
04 Sep -0.7 04:08:22 20° ENE 04:08:22 20° ENE 04:09:33 10° NE visible
05 Sep -1.0 04:50:26 13° NNW 04:50:26 13° NNW 04:51:07 10° NNW visible
